EW5612 Weather Reports


Display with metric or nautical units.
time (UTC)temp
F
wind
direction
speed
MPH
gust
MPH
rain 1hr
in
rain 24hr
in
rain mn
in
humidity
%
barometer
mb
20260508090703 63 355 0.0 0.0 0.00 0.00 0.00 84 1013.2
20260508085703 63 355 0.0 0.0 0.00 0.00 0.00 84 1013.2
20260508085203 63 355 0.0 0.0 0.00 0.00 0.00 84 1013.3
20260508084704 63 66 0.0 0.0 0.00 0.00 0.00 84 1013.3
20260508083704 63 14 0.0 0.0 0.00 0.00 0.00 83 1013.5
20260508083203 63 16 0.0 0.0 0.00 0.00 0.00 84 1013.4
20260508082704 63 16 0.0 0.0 0.00 0.00 0.00 83 1013.4
20260508082204 63 0 0.0 0.0 0.00 0.00 0.00 83 1013.4
20260508081704 63 0 0.0 0.0 0.00 0.00 0.00 83 1013.5
20260508081204 63 0 0.0 0.0 0.00 0.00 0.00 83 1013.3
20260508075704 63 0 0.0 0.0 0.00 0.00 0.00 83 1013.4
20260508075204 63 0 0.0 0.0 0.00 0.00 0.00 83 1013.4
20260508074704 63 327 0.0 0.0 0.00 0.00 0.00 83 1013.5
20260508073704 63 326 0.0 0.0 0.00 0.00 0.00 83 1013.2
20260508073204 63 332 0.0 0.0 0.00 0.00 0.00 83 1013.2
20260508072704 63 331 0.0 0.0 0.00 0.00 0.00 83 1013.2
20260508072204 63 33 0.0 0.0 0.00 0.00 0.00 83 1013.3
20260508071704 63 33 0.0 0.0 0.00 0.00 0.00 83 1013.4
20260508071204 63 35 0.0 0.0 0.00 0.00 0.00 83 1013.6
20260508070704 63 23 0.0 0.0 0.00 0.00 0.00 83 1013.7
20260508070203 63 23 0.0 0.0 0.00 0.00 0.00 83 1013.7
20260508065704 63 23 0.0 0.0 0.00 0.00 0.00 84 1013.9
20260508065206 62 345 0.0 0.0 0.00 0.00 0.00 84 1013.9
20260508064703 62 345 0.0 0.0 0.00 0.00 0.00 84 1014.1
20260508064204 62 343 0.0 0.0 0.00 0.00 0.00 84 1014.3
20260508063203 62 343 0.0 0.0 0.00 0.00 0.00 84 1014.3
20260508062703 62 338 0.0 0.0 0.00 0.00 0.00 84 1014.4
20260508062203 62 339 0.0 0.0 0.00 0.00 0.00 84 1014.6
20260508060703 62 331 0.0 0.0 0.00 0.00 0.00 84 1014.7
20260508060204 62 236 0.0 0.0 0.00 0.00 0.00 84 1014.7
20260508055703 62 305 0.0 0.0 0.00 0.00 0.00 85 1014.5
20260508055203 62 328 0.0 0.0 0.00 0.00 0.00 85 1014.5
20260508054704 62 290 0.0 0.0 0.00 0.00 0.00 85 1014.4
20260508054204 62 289 0.0 0.0 0.00 0.00 0.00 85 1014.3
20260508053703 62 289 0.0 0.0 0.00 0.00 0.00 85 1013.8
20260508053203 62 298 0.0 0.0 0.00 0.00 0.00 85 1013.8
20260508052704 62 297 0.0 0.0 0.00 0.00 0.00 84 1014.1
20260508052203 62 303 0.0 0.0 0.00 0.00 0.00 84 1014.0
20260508051704 62 11 0.0 0.0 0.00 0.00 0.00 84 1014.0
20260508051203 62 355 0.0 0.0 0.00 0.00 0.00 84 1014.1
20260508050703 62 355 0.0 0.0 0.00 0.00 0.00 84 1013.5
20260508050204 62 350 0.0 1.0 0.00 0.00 0.00 84 1013.7
20260508045703 62 41 0.0 0.0 0.00 0.00 0.00 84 1014.0
20260508045203 62 41 0.0 0.0 0.00 0.00 0.00 84 1013.8
20260508044703 62 301 0.0 0.0 0.00 0.00 0.00 83 1013.8
20260508044204 62 301 0.0 0.0 0.00 0.00 0.00 83 1013.9
20260508043703 62 301 0.0 0.0 0.00 0.00 0.00 83 1014.0
20260508043203 63 301 0.0 0.0 0.00 0.00 0.00 83 1014.1
20260508042703 63 299 0.0 0.0 0.00 0.00 0.00 82 1014.4
20260508042204 63 299 0.0 0.0 0.00 0.00 0.00 82 1014.5
20260508041703 63 279 0.0 0.0 0.00 0.00 0.00 82 1014.7
20260508040704 63 287 0.0 0.0 0.00 0.00 0.00 82 1015.0
20260508035704 63 266 0.0 0.0 0.00 0.00 0.00 82 1015.2
20260508034204 63 204 0.0 0.0 0.00 0.00 0.00 82 1015.4
20260508033704 63 313 0.0 0.0 0.00 0.00 0.00 82 1015.3
20260508033203 63 316 0.0 0.0 0.00 0.00 0.00 82 1015.0
20260508032703 63 322 0.0 0.0 0.00 0.00 0.00 82 1014.7
20260508031704 63 340 0.0 0.0 0.00 0.00 0.00 82 1014.4
20260508031204 63 11 0.0 0.0 0.00 0.00 0.00 81 1014.5
20260508030704 63 11 0.0 0.0 0.00 0.00 0.00 81 1014.5
20260508030203 63 11 0.0 0.0 0.00 0.00 0.00 81 1014.3
20260508025203 63 12 0.0 0.0 0.00 0.00 0.00 81 1013.6
20260508024203 63 12 0.0 0.0 0.00 0.00 0.00 81 1013.4
20260508023704 63 12 0.0 0.0 0.00 0.00 0.00 81 1013.2
20260508023204 63 11 0.0 0.0 0.00 0.00 0.00 81 1013.1
20260508022703 63 11 0.0 0.0 0.00 0.00 0.00 80 1013.1
20260508021704 63 39 0.0 0.0 0.00 0.00 0.00 80 1013.0
20260508021203 63 39 0.0 0.0 0.00 0.00 0.00 80 1013.2
20260508020704 63 39 0.0 0.0 0.00 0.00 0.00 79 1013.6
20260508020204 63 39 0.0 0.0 0.00 0.00 0.00 79 1013.7
20260508015703 64 36 0.0 0.0 0.00 0.00 0.00 79 1013.7
20260508015203 64 26 0.0 0.0 0.00 0.00 0.00 79 1013.4
20260508014703 64 342 0.0 0.0 0.00 0.00 0.00 78 1013.4
20260508014203 64 305 0.0 1.0 0.00 0.00 0.00 79 1014.2
20260508013703 64 317 0.0 0.0 0.00 0.00 0.00 79 1013.6
20260508012703 64 358 0.0 1.0 0.00 0.00 0.00 78 1012.9
20260508012203 64 17 0.0 0.0 0.00 0.00 0.00 78 1012.8
20260508011703 64 19 0.0 0.0 0.00 0.00 0.00 77 1013.1
20260508011204 64 19 0.0 0.0 0.00 0.00 0.00 76 1013.2
20260508010704 65 18 0.0 0.0 0.00 0.00 0.00 76 1013.2
20260508010203 65 18 0.0 0.0 0.00 0.00 0.00 76 1013.4
20260508005703 65 17 0.0 0.0 0.00 0.00 0.00 75 1013.5
20260508005204 65 51 0.0 0.0 0.00 0.00 0.00 75 1013.6
20260508004704 65 38 0.0 0.0 0.00 0.00 0.00 75 1013.7
20260508004203 65 42 0.0 0.0 0.00 0.00 0.00 74 1014.1
20260508003203 66 28 0.0 0.0 0.00 0.00 0.00 73 1014.3
20260508002703 66 29 0.0 0.0 0.00 0.00 0.00 72 1014.6
20260508002203 66 13 0.0 0.0 0.00 0.00 0.00 72 1014.7
20260508001703 66 14 0.0 0.0 0.00 0.00 0.00 72 1014.5
20260508001203 66 293 0.0 0.0 0.00 0.00 0.00 72 1014.2
20260508000703 66 276 0.0 0.0 0.00 0.00 0.00 71 1014.3
20260508000204 67 322 0.0 0.0 0.00 0.00 0.00 71 1014.4
20260507235203 67 359 0.0 0.0 0.00 0.00 0.00 70 1014.5
20260507234703 67 355 0.0 0.0 0.00 0.00 0.00 70 1014.7
20260507233703 67 11 0.0 0.0 0.00 0.00 0.00 70 1014.6
20260507233203 67 306 0.0 0.0 0.00 0.00 0.00 71 1014.5
20260507232703 67 301 0.0 2.0 0.00 0.00 0.00 71 1014.5
20260507232204 67 339 1.0 5.0 0.00 0.00 0.00 71 1014.3
20260507231704 67 21 0.0 3.0 0.00 0.00 0.00 70 1014.5
20260507231204 67 14 0.0 2.0 0.00 0.00 0.00 70 1014.7
20260507230703 67 12 0.0 0.0 0.00 0.00 0.00 70 1014.6
20260507230203 68 314 0.0 1.0 0.00 0.00 0.00 71 1014.8
20260507225203 67 342 1.0 6.0 0.00 0.00 0.00 70 1015.1
20260507224703 67 101 0.0 1.0 0.00 0.00 0.00 70 1015.2
20260507223703 67 325 0.0 3.0 0.00 0.00 0.00 69 1015.3
20260507223204 67 326 2.0 5.0 0.00 0.00 0.00 69 1015.1
20260507222703 68 322 0.0 1.0 0.00 0.00 0.00 69 1015.2
20260507222203 68 305 0.0 3.0 0.00 0.00 0.00 69 1015.1
20260507221704 68 195 0.0 8.0 0.00 0.00 0.00 70 1015.0
20260507221204 67 281 0.0 3.0 0.00 0.00 0.00 71 1015.1
20260507220703 67 32 0.0 1.0 0.00 0.00 0.00 72 1014.9
20260507220204 67 339 0.0 3.0 0.00 0.00 0.00 71 1015.0
20260507215704 67 317 0.0 0.0 0.00 0.00 0.00 72 1014.9
20260507215203 66 14 0.0 2.0 0.00 0.00 0.00 72 1014.8
20260507214704 66 322 0.0 3.0 0.00 0.00 0.00 73 1015.0
20260507214204 67 280 0.0 0.0 0.00 0.00 0.00 73 1015.1
20260507213704 67 322 0.0 1.0 0.00 0.00 0.00 72 1015.1
20260507213204 67 303 0.0 0.0 0.00 0.00 0.00 74 1015.2
20260507212703 67 308 0.0 0.0 0.00 0.00 0.00 73 1015.2
20260507212204 67 3 0.0 0.0 0.00 0.00 0.00 73 1015.0
20260507211704 66 356 1.0 8.0 0.00 0.00 0.00 72 1015.0
20260507211203 66 340 0.0 2.0 0.00 0.00 0.00 73 1015.0
20260507210703 66 256 0.0 0.0 0.00 0.00 0.00 73 1015.1
20260507210203 66 6 0.0 3.0 0.00 0.00 0.00 73 1014.6
20260507205704 66 349 0.0 2.0 0.00 0.00 0.00 74 1015.1
20260507205203 66 110 0.0 8.0 0.00 0.00 0.00 75 1015.1
20260507204703 66 342 0.0 0.0 0.00 0.00 0.00 75 1015.3
20260507204203 65 304 0.0 0.0 0.00 0.00 0.00 74 1015.4
20260507203703 65 11 0.0 3.0 0.00 0.00 0.00 74 1015.2
20260507203203 65 349 1.0 5.0 0.00 0.00 0.00 75 1015.5
20260507202704 65 16 0.0 0.0 0.00 0.00 0.00 75 1015.3
20260507202203 65 2 0.0 1.0 0.00 0.00 0.00 75 1015.3
20260507201204 65 20 1.0 9.0 0.00 0.00 0.00 75 1015.4
20260507200704 65 23 0.0 8.0 0.00 0.00 0.00 75 1015.3
20260507200203 65 17 0.0 3.0 0.00 0.00 0.00 75 1015.1
20260507195704 65 25 0.0 0.0 0.00 0.00 0.00 76 1015.1
20260507195203 66 342 0.0 0.0 0.00 0.00 0.00 75 1015.1
20260507194704 66 24 0.0 0.0 0.00 0.00 0.00 75 1014.9
20260507194204 66 94 0.0 0.0 0.00 0.00 0.00 74 1015.4
20260507193704 66 16 0.0 0.0 0.00 0.00 0.00 73 1015.7
20260507193204 66 313 0.0 0.0 0.00 0.00 0.00 73 1015.9
20260507192204 67 331 0.0 1.0 0.00 0.00 0.00 72 1015.9
20260507191703 67 12 0.0 3.0 0.00 0.00 0.00 71 1016.1
20260507190703 68 304 1.0 6.0 0.00 0.00 0.00 71 1016.4
20260507190204 68 272 0.0 0.0 0.00 0.00 0.00 71 1016.4
20260507185703 68 298 0.0 0.0 0.00 0.00 0.00 72 1016.3
20260507185204 68 11 0.0 1.0 0.00 0.00 0.00 73 1016.2
20260507184704 68 26 1.0 3.0 0.00 0.00 0.00 73 1016.0
20260507184203 67 35 0.0 0.0 0.00 0.00 0.00 74 1016.2
20260507183703 67 323 0.0 3.0 0.00 0.00 0.00 74 1016.0
20260507183203 67 21 0.0 7.0 0.00 0.00 0.00 73 1016.2
20260507182204 67 43 0.0 6.0 0.00 0.00 0.00 74 1016.3
20260507181204 66 44 0.0 6.0 0.00 0.00 0.00 76 1016.4
20260507175703 65 318 0.0 0.0 0.00 0.00 0.00 76 1016.3
20260507174703 64 20 0.0 0.0 0.00 0.00 0.00 79 1015.8
20260507174204 64 90 0.0 0.0 0.00 0.00 0.00 79 1016.5
20260507173704 63 342 0.0 2.0 0.00 0.00 0.00 80 1016.8
20260507173203 63 20 0.0 9.0 0.00 0.00 0.00 80 1016.9
20260507172704 62 296 0.0 3.0 0.00 0.00 0.00 80 1017.1
20260507172203 62 348 0.0 0.0 0.00 0.00 0.00 81 1017.5
20260507171704 62 19 0.0 1.0 0.00 0.00 0.00 80 1017.4
20260507171203 62 3 0.0 9.0 0.00 0.00 0.00 80 1017.5
20260507170704 62 356 0.0 3.0 0.00 0.00 0.00 80 1017.5
20260507170203 62 6 1.0 7.0 0.00 0.00 0.00 81 1017.4
20260507165704 61 338 1.0 7.0 0.00 0.00 0.00 81 1017.6
20260507165204 61 337 2.0 9.0 0.00 0.00 0.00 82 1017.4
20260507164704 61 310 0.0 2.0 0.00 0.00 0.00 82 1017.4
20260507164204 61 26 0.0 0.0 0.00 0.00 0.00 83 1017.7
20260507163204 61 328 1.0 10.0 0.00 0.00 0.00 81 1017.8
20260507162703 61 36 0.0 1.0 0.00 0.00 0.00 82 1017.4
20260507162204 61 320 1.0 5.0 0.00 0.00 0.00 82 1017.5
20260507161703 61 342 0.0 3.0 0.00 0.00 0.00 82 1017.5
20260507161204 60 330 0.0 3.0 0.00 0.00 0.00 83 1017.5
20260507160703 60 330 0.0 0.0 0.00 0.00 0.00 83 1017.5
20260507160203 60 268 0.0 1.0 0.00 0.00 0.00 83 1017.5
20260507155704 60 296 0.0 3.0 0.00 0.00 0.00 83 1017.5
20260507155203 60 308 0.0 3.0 0.00 0.00 0.00 83 1017.6
20260507154704 60 313 1.0 7.0 0.00 0.00 0.00 83 1017.4
20260507154203 60 341 0.0 1.0 0.00 0.00 0.00 84 1017.4
20260507153703 60 314 0.0 1.0 0.00 0.00 0.00 84 1017.4
20260507153203 60 312 0.0 2.0 0.00 0.00 0.00 85 1017.4
20260507152703 60 338 0.0 2.0 0.00 0.00 0.00 85 1017.5
20260507152204 60 317 0.0 9.0 0.00 0.00 0.00 85 1017.7
20260507151703 60 356 0.0 5.0 0.00 0.00 0.00 85 1017.5
20260507151204 60 9 0.0 1.0 0.00 0.00 0.00 86 1017.5
20260507150703 60 343 0.0 5.0 0.00 0.00 0.00 85 1017.7
20260507150203 60 5 0.0 3.0 0.00 0.00 0.00 85 1017.7
20260507145203 60 347 0.0 3.0 0.00 0.00 0.00 85 1017.7
20260507144703 60 309 1.0 5.0 0.00 0.00 0.00 85 1017.8
20260507144203 60 7 1.0 5.0 0.00 0.00 0.00 85 1017.6
20260507143703 60 316 0.0 10.0 0.00 0.00 0.00 85 1017.4
20260507142704 60 304 0.0 3.0 0.00 0.00 0.00 86 1017.2
20260507142203 60 2 0.0 9.0 0.00 0.00 0.00 86 1017.1
20260507141703 60 20 1.0 6.0 0.00 0.00 0.00 86 1016.9
20260507140703 60 292 0.0 6.0 0.00 0.00 0.00 86 1016.8
20260507140203 60 25 0.0 2.0 0.00 0.00 0.00 87 1016.8
20260507135704 60 345 1.0 5.0 0.00 0.00 0.00 87 1016.6
20260507135204 60 344 0.0 5.0 0.00 0.00 0.00 87 1016.8
20260507134704 60 350 0.0 6.0 0.00 0.00 0.00 87 1017.1
20260507132704 60 354 0.0 0.0 0.00 0.00 0.00 88 1017.0
20260507131703 60 11 0.0 3.0 0.00 0.00 0.00 88 1016.7
20260507131203 60 344 0.0 5.0 0.00 0.00 0.00 88 1016.8
20260507130703 60 286 0.0 3.0 0.00 0.00 0.00 87 1016.7
20260507130203 60 16 0.0 3.0 0.00 0.00 0.00 87 1016.7
20260507125703 60 49 1.0 3.0 0.00 0.00 0.00 88 1016.5
20260507125203 60 9 0.0 3.0 0.00 0.00 0.00 88 1016.5
20260507124704 60 47 0.0 9.0 0.00 0.00 0.00 89 1016.6
20260507124203 60 322 0.0 2.0 0.00 0.00 0.00 89 1016.2
20260507123704 60 340 0.0 3.0 0.00 0.00 0.00 90 1016.1
20260507122705 60 309 0.0 5.0 0.00 0.00 0.00 90 1016.2
20260507121703 60 277 0.0 1.0 0.00 0.00 0.00 90 1016.2
20260507121203 60 53 0.0 1.0 0.00 0.00 0.00 90 1016.3
20260507120703 60 347 0.0 2.0 0.00 0.00 0.00 90 1016.1
20260507115704 60 0 0.0 12.0 0.00 0.00 0.00 90 1015.9
20260507115204 60 346 0.0 1.0 0.00 0.00 0.00 90 1015.7
20260507114704 60 328 0.0 1.0 0.00 0.00 0.00 90 1015.7
20260507114204 60 271 0.0 2.0 0.00 0.00 0.00 90 1015.4
20260507113704 60 27 0.0 3.0 0.00 0.00 0.00 90 1015.5
20260507113204 60 6 0.0 3.0 0.00 0.00 0.00 90 1015.6
20260507112203 60 325 0.0 1.0 0.00 0.00 0.00 90 1015.5
20260507111704 60 319 1.0 9.0 0.00 0.00 0.00 90 1015.5
20260507111203 60 32 0.0 2.0 0.00 0.00 0.00 90 1015.4
20260507110703 60 339 0.0 1.0 0.00 0.00 0.00 90 1015.7
20260507110203 60 302 0.0 2.0 0.00 0.00 0.00 90 1015.3
20260507105704 60 328 0.0 3.0 0.00 0.00 0.00 90 1015.3
20260507105204 60 307 0.0 6.0 0.00 0.00 0.00 90 1014.9
20260507103704 60 2 0.0 6.0 0.00 0.00 0.00 89 1015.0
20260507103203 60 326 0.0 1.0 0.00 0.00 0.00 89 1015.2
20260507102704 60 14 0.0 1.0 0.00 0.00 0.00 89 1015.1
20260507101704 60 322 0.0 2.0 0.00 0.00 0.00 88 1015.1
20260507101204 60 311 0.0 3.0 0.00 0.00 0.00 88 1015.1
20260507100704 60 47 0.0 1.0 0.00 0.00 0.00 88 1015.1
20260507100204 60 273 0.0 3.0 0.00 0.00 0.00 88 1015.4
20260507095704 61 328 0.0 1.0 0.00 0.00 0.00 88 1015.1
20260507095204 61 297 0.0 1.0 0.00 0.00 0.00 87 1015.0
20260507094704 61 254 0.0 0.0 0.00 0.00 0.00 87 1015.0
20260507094203 61 252 0.0 1.0 0.00 0.00 0.00 87 1015.0
20260507093704 61 11 0.0 1.0 0.00 0.00 0.00 87 1014.7
20260507093204 61 301 0.0 0.0 0.00 0.00 0.00 87 1014.8
20260507092704 61 24 0.0 1.0 0.00 0.00 0.00 87 1014.8
20260507092204 61 352 0.0 3.0 0.00 0.00 0.00 87 1014.7
20260507091703 61 290 0.0 3.0 0.00 0.00 0.00 87 1014.6
20260507091203 61 319 0.0 0.0 0.00 0.00 0.00 87 1014.5